Wind_Speed
18 13 17 20 20 21 22 14 14 10 11 7 15 15 14 13 16 14 17 12 11 3 3 2 4 7 6 2 8 14 17 20 25 24 22 21 21 21 22 29 26 22 26 21
16 17 19 17 18 15 18 14 17 15 11 9 15 18 16 13 13 18 16 13 5 6 4 1 7 8 8 7 1 9 15 18 20 21 23 20 19 21 21 18 25 25 27 23
20 17 14 20 14 15 17 18 16 16 12 10 16 18 14 16 11 5 2 3 6 4 1 6 7 9 9 9 7 5 11 16 19 20 18 18 19 20 19 20 26 34 27 17
21 22 15 13 17 16 18 17 16 16 14 13 21 14 20 18 12 12 11 10 6 3 6 8 9 11 12 12 10 8 5 11 14 17 19 19 19 19 22 20 18 18 23 20
21 22 20 19 17 17 16 17 13 16 17 16 16 9 17 21 20 16 9 6 6 8 9 11 12 13 13 14 13 11 8 1 8 11 16 17 18 17 19 21 20 20 29 22
21 23 16 16 17 13 10 13 17 13 15 16 21 17 12 13 22 18 12 8 7 8 10 12 12 14 17 17 15 14 9 5 1 7 12 15 18 15 17 18 19 22 20 22
21 21 12 5 12 12 13 14 11 14 14 17 18 19 12 11 12 16 13 12 9 7 8 11 12 13 16 19 19 18 17 14 7 1 5 10 11 17 19 18 16 19 19 18
15 17 20 14 17 18 14 18 15 20 14 14 14 21 10 15 14 15 13 11 9 7 9 10 11 12 14 16 18 19 19 17 16 14 7 3 8 11 14 15 19 18 23 22
12 6 5 5 5 10 16 14 9 10 18 14 9 10 10 13 13 15 15 11 8 6 6 7 10 11 12 13 15 17 17 17 17 17 15 13 9 9 10 13 17 24 22 24
10 9 13 10 9 10 12 8 8 10 14 18 15 7 5 2 5 10 13 10 7 2 2 5 7 9 10 11 13 14 14 15 16 17 17 16 14 13 11 13 14 17 20 23
12 9 9 8 10 14 8 12 14 13 7 12 13 10 7 4 3 11 11 7 5 2 5 6 8 8 8 9 12 12 12 14 15 17 17 16 16 16 11 9 9 13 18 20
9 7 13 15 4 13 11 12 1 6 13 13 13 12 12 13 9 3 4 1 5 5 6 8 9 9 10 11 12 12 13 13 12 14 15 16 16 15 16 11 9 11 16 16
11 7 11 17 17 13 13 16 14 13 14 18 11 3 4 4 3 4 1 2 2 5 6 8 10 11 13 14 14 14 13 12 12 11 12 13 14 15 14 14 14 10 9 17
7 11 14 12 4 8 12 4 10 10 11 18 18 18 9 7 9 5 3 3 6 6 7 10 11 12 13 14 15 15 15 14 14 13 12 12 12 12 13 13 11 12 11 14
7 14 15 14 12 7 12 15 13 13 14 14 14 3 16 17 16 4 3 8 10 11 10 10 11 14 15 15 15 16 16 16 15 15 14 13 12 11 11 13 11 9 9 12
7 11 12 12 13 14 10 14 13 15 14 14 13 13 7 10 2 7 9 8 8 11 13 12 14 16 18 18 17 17 18 17 17 16 15 14 13 10 11 10 11 11 9 9
7 10 10 13 5 8 13 16 15 17 16 13 12 10 10 3 4 6 8 10 12 10 11 15 18 18 18 18 19 19 20 19 19 17 17 16 14 14 11 11 11 10 11 11
12 10 11 10 10 8 3 5 6 10 15 10 8 4 3 4 8 12 14 12 7 11 15 19 20 21 20 20 20 21 21 20 21 20 18 17 16 17 14 13 11 11 10 11
13 10 6 5 9 10 9 6 1 6 7 5 6 5 2 1 7 13 7 6 10 14 18 20 22 22 22 23 24 23 22 22 22 22 21 19 19 18 18 17 14 14 12 11
12 11 8 9 3 5 5 5 3 3 7 6 3 4 5 6 9 3 10 12 16 18 21 23 25 25 26 24 22 23 24 24 23 22 22 21 20 20 20 18 17 16 16 12
9 11 11 10 6 8 8 3 2 8 4 7 6 5 10 10 14 18 21 20 19 22 24 24 22 24 23 21 22 20 21 21 21 22 23 23 23 22 22 23 22 19 18 14
7 9 8 11 7 9 3 3 5 5 1 5 9 13 15 15 14 18 20 19 22 23 22 20 20 19 19 17 17 18 20 20 21 22 23 24 24 25 26 26 27 23 17 17
4 2 4 2 2 1 2 5 1 6 11 12 13 14 13 13 15 20 20 19 22 22 20 19 18 19 20 21 18 22 18 20 22 20 22 26 25 24 27 28 26 22 18 18
7 5 4 5 6 6 4 9 6 6 10 11 12 14 16 18 19 20 21 20 22 22 20 20 20 21 22 21 22 22 21 22 22 24 22 22 24 28 27 32 26 26 23 22
10 4 5 9 11 12 9 4 6 8 9 14 14 16 16 18 20 20 21 22 22 21 21 20 20 23 23 21 22 23 19 21 20 21 21 21 22 24 27 30 28 27 24 21
15 13 7 8 7 7 3 1 6 11 14 13 13 15 18 18 20 20 22 23 20 21 21 22 23 22 22 21 20 17 17 17 17 20 21 20 20 22 25 28 28 30 30 21
Wind_Direction
208 218 221 232 228 249 274 282 292 248 232 214 239 248 235 232 228 226 230 216 217 204 63 52 45 49 40 34 206 222 217 221 211 212 215 217 219 219 219 219 214 222 232 220
237 231 250 239 255 242 255 259 257 262 253 220 250 242 248 244 227 230 228 184 159 206 189 26 46 50 44 36 13 219 223 222 221 218 218 222 223 226 230 231 226 227 234 241
236 235 231 246 242 244 241 248 249 253 217 247 262 255 224 231 202 131 203 124 186 210 88 50 51 42 40 31 10 315 231 227 224 217 228 226 221 221 229 225 240 228 229 229
251 240 253 250 254 240 248 237 253 265 245 241 206 251 217 209 180 183 180 195 174 133 79 58 54 42 35 32 25 15 311 225 227 225 223 229 229 229 223 227 230 233 238 241
251 238 244 251 250 239 246 269 225 247 255 260 242 241 292 173 181 177 170 143 142 95 71 61 54 49 39 34 33 30 28 281 230 229 229 230 242 237 236 232 228 240 251 244
251 266 230 259 239 253 284 263 258 243 246 243 244 249 234 217 184 147 143 140 113 94 81 67 58 49 46 42 40 36 54 80 211 246 246 242 230 239 237 239 238 229 234 241
236 250 218 243 258 227 238 240 241 228 228 243 245 236 252 91 85 136 139 133 111 103 84 63 50 50 47 44 43 38 37 32 42 330 249 255 265 238 235 244 239 235 231 231
266 237 201 180 245 259 232 232 244 250 247 259 279 229 136 115 121 127 127 110 106 93 82 58 47 47 51 46 42 40 35 34 32 24 2 266 247 259 248 237 235 243 235 229
289 287 189 314 264 263 252 259 277 309 275 263 239 104 126 142 146 150 139 123 103 88 82 52 53 44 41 38 32 25 26 26 27 28 26 6 328 260 235 246 240 235 230 224
315 281 196 164 249 227 251 302 254 241 270 271 267 203 324 290 161 160 132 124 100 48 52 41 34 38 30 30 26 26 22 19 17 20 20 17 12 344 299 255 246 248 241 239
295 276 250 261 222 248 197 236 231 249 215 251 265 278 136 153 53 343 65 65 56 336 353 346 353 355 352 359 1 6 11 7 3 6 7 8 10 0 348 320 264 251 255 244
334 305 272 233 292 322 302 283 4 288 223 234 267 260 140 156 156 210 61 94 66 25 18 13 1 358 354 349 342 341 340 349 349 348 352 355 357 359 356 341 319 275 242 225
351 249 265 245 213 190 248 259 254 253 265 269 258 246 335 59 172 148 312 35 360 340 9 351 347 345 344 343 344 342 339 331 327 335 340 340 350 351 353 353 345 308 265 217
312 279 275 287 132 225 282 258 279 278 262 259 254 261 212 224 265 203 246 296 311 323 330 332 331 330 331 332 332 330 328 322 318 317 326 325 329 340 342 342 345 341 317 270
255 275 277 280 289 278 283 283 278 246 259 267 264 302 193 213 227 154 278 284 294 300 308 316 319 319 319 318 317 322 319 316 310 308 311 300 307 314 327 332 337 336 332 324
243 265 276 285 272 267 275 275 268 262 266 269 275 274 289 287 10 282 256 267 287 300 309 319 313 312 311 310 307 305 306 309 308 303 299 301 283 299 306 317 327 331 321 324
289 272 274 270 326 298 267 258 257 254 245 251 260 273 21 47 236 267 298 295 286 303 327 315 310 309 307 305 304 302 299 298 299 298 293 288 284 270 278 296 309 313 318 320
259 277 271 278 285 263 34 22 306 284 273 238 233 277 199 328 342 311 289 298 345 323 312 310 309 307 303 300 299 297 298 296 292 289 287 281 277 275 270 269 286 295 308 316
216 252 271 254 262 275 284 170 250 265 198 211 243 225 146 13 322 284 54 6 326 312 308 306 306 303 300 296 294 294 293 290 291 287 281 278 273 272 274 257 269 278 282 292
227 214 244 274 231 248 76 59 36 340 247 68 110 312 7 320 278 177 6 331 317 314 312 310 305 301 296 291 290 290 289 286 284 285 282 274 271 267 266 271 258 261 271 284
196 226 223 244 254 291 114 111 13 247 67 48 35 340 310 306 312 314 315 317 318 311 312 310 307 302 301 296 295 290 291 288 283 283 281 279 270 268 264 262 255 255 261 273
192 185 224 217 237 245 85 158 271 60 326 316 337 325 308 303 301 303 313 312 311 311 308 310 309 305 303 300 296 290 287 290 286 284 279 277 275 265 260 263 258 250 251 262
232 323 277 306 248 72 205 298 351 307 314 315 315 316 307 301 294 297 298 305 304 307 305 309 304 301 298 294 288 296 291 302 296 287 284 276 267 267 259 258 259 243 239 249
255 210 245 250 257 247 254 283 292 281 284 307 315 318 308 295 290 289 299 297 301 301 298 300 302 297 293 294 295 294 293 296 293 293 281 281 276 266 257 255 259 239 238 244
293 291 277 286 278 289 272 265 330 320 302 296 304 301 298 299 297 300 294 298 296 297 302 301 301 298 295 292 287 295 293 297 300 291 288 283 277 273 265 258 256 240 230 234
256 255 253 258 331 313 336 336 298 291 299 320 317 306 303 303 302 301 300 300 298 300 303 302 303 302 297 295 296 292 291 298 299 303 295 287 285 283 268 262 258 243 228 234
Height
1497 1494 1489 1484 1478 1474 1467 1472 1468 1461 1463 1476 1474 1470 1468 1470 1475 1476 1478 1481 1484 1489 1496 1501 1500 1498 1499 1498 1501 1503 1505 1507 1510 1512 1514 1516 1518 1521 1522 1522 1525 1526 1525 1530
1489 1490 1480 1475 1473 1474 1476 1479 1477 1468 1465 1474 1475 1472 1466 1467 1469 1473 1474 1476 1486 1494 1498 1500 1497 1497 1498 1498 1498 1501 1502 1503 1505 1509 1510 1513 1515 1517 1518 1519 1520 1520 1523 1528
1483 1475 1472 1476 1472 1481 1478 1479 1474 1473 1464 1473 1475 1469 1464 1462 1464 1472 1481 1484 1491 1495 1495 1494 1495 1497 1496 1497 1498 1498 1498 1500 1501 1504 1507 1509 1511 1514 1517 1518 1514 1517 1518 1521
1475 1472 1471 1476 1474 1474 1481 1470 1473 1471 1473 1478 1463 1477 1454 1456 1469 1477 1483 1486 1489 1491 1492 1494 1494 1496 1496 1495 1496 1497 1495 1497 1498 1501 1503 1505 1508 1510 1512 1513 1512 1513 1513 1515
1472 1468 1471 1470 1472 1469 1474 1467 1466 1473 1472 1471 1462 1473 1447 1445 1464 1473 1481 1488 1490 1491 1494 1495 1496 1497 1496 1496 1495 1494 1495 1497 1497 1498 1499 1502 1503 1506 1508 1510 1512 1509 1507 1511
1466 1463 1462 1465 1465 1467 1469 1471 1469 1468 1469 1479 1462 1459 1454 1442 1449 1464 1482 1490 1490 1491 1494 1496 1497 1498 1497 1496 1495 1493 1492 1494 1495 1496 1496 1496 1497 1501 1504 1506 1506 1507 1506 1505
1462 1464 1465 1473 1472 1470 1475 1476 1485 1484 1478 1473 1451 1457 1450 1456 1455 1467 1482 1488 1490 1492 1495 1498 1499 1499 1499 1497 1497 1496 1494 1494 1492 1493 1493 1493 1495 1496 1498 1499 1501 1503 1503 1502
1466 1469 1457 1467 1474 1470 1465 1470 1476 1483 1471 1455 1442 1450 1456 1463 1471 1477 1484 1488 1492 1494 1498 1500 1502 1501 1500 1500 1500 1499 1497 1496 1495 1493 1491 1491 1492 1492 1493 1494 1496 1497 1499 1499
1469 1468 1471 1476 1476 1476 1471 1474 1463 1478 1466 1467 1455 1458 1467 1470 1476 1480 1482 1487 1494 1497 1499 1502 1503 1503 1501 1501 1501 1500 1500 1498 1496 1494 1493 1492 1490 1488 1488 1490 1491 1492 1493 1495
1479 1483 1472 1475 1481 1476 1475 1466 1483 1476 1496 1494 1473 1474 1487 1479 1478 1477 1480 1486 1495 1499 1500 1502 1502 1503 1503 1503 1503 1502 1502 1500 1499 1496 1494 1493 1491 1489 1486 1485 1486 1488 1490 1491
1489 1489 1474 1475 1476 1471 1472 1475 1474 1477 1493 1488 1489 1477 1486 1490 1502 1482 1485 1494 1497 1500 1502 1502 1503 1504 1504 1503 1503 1503 1502 1501 1500 1497 1495 1493 1491 1490 1486 1484 1483 1483 1485 1486
1488 1491 1485 1476 1474 1480 1475 1473 1478 1494 1487 1479 1473 1475 1480 1488 1496 1500 1496 1502 1501 1503 1504 1503 1503 1503 1504 1504 1504 1503 1502 1501 1500 1498 1496 1493 1492 1490 1487 1485 1483 1481 1481 1482
1497 1491 1490 1476 1470 1473 1482 1476 1476 1480 1488 1492 1495 1488 1491 1492 1495 1498 1498 1499 1501 1505 1504 1504 1504 1504 1504 1504 1503 1502 1501 1500 1500 1498 1497 1493 1492 1490 1488 1486 1483 1481 1479 1480
1508 1498 1492 1487 1506 1499 1489 1482 1480 1481 1489 1483 1482 1476 1496 1497 1496 1494 1498 1500 1502 1503 1504 1505 1506 1505 1505 1504 1502 1501 1500 1499 1498 1496 1495 1493 1491 1489 1488 1486 1484 1483 1480 1479
1505 1502 1492 1485 1481 1483 1487 1485 1481 1483 1481 1485 1479 1493 1498 1496 1492 1495 1499 1503 1503 1503 1503 1504 1505 1505 1504 1503 1501 1500 1498 1497 1496 1494 1493 1491 1490 1488 1487 1485 1482 1481 1480 1477
1501 1500 1493 1492 1481 1480 1486 1484 1481 1481 1481 1480 1479 1480 1479 1484 1491 1496 1498 1499 1501 1503 1503 1504 1505 1504 1503 1501 1500 1498 1496 1495 1493 1491 1489 1488 1487 1486 1486 1484 1482 1480 1478 1476
1506 1501 1497 1495 1483 1485 1487 1477 1477 1477 1477 1480 1484 1480 1482 1485 1492 1495 1497 1499 1501 1501 1503 1505 1505 1503 1501 1499 1497 1495 1493 1491 1490 1488 1486 1485 1484 1483 1484 1482 1481 1479 1476 1474
1506 1503 1495 1495 1487 1502 1477 1478 1481 1482 1478 1472 1480 1481 1487 1491 1495 1498 1498 1497 1499 1502 1504 1504 1502 1500 1498 1496 1494 1492 1490 1487 1485 1484 1483 1482 1481 1479 1479 1479 1479 1476 1474 1472
1501 1504 1503 1501 1487 1479 1471 1471 1481 1478 1477 1478 1480 1482 1487 1494 1498 1494 1498 1501 1502 1503 1502 1500 1498 1496 1493 1491 1489 1488 1485 1483 1481 1479 1478 1477 1476 1476 1474 1472 1472 1473 1471 1469
1494 1501 1503 1493 1507 1498 1486 1484 1484 1485 1483 1479 1484 1488 1491 1496 1494 1492 1499 1500 1500 1499 1497 1496 1494 1491 1489 1487 1485 1483 1481 1478 1476 1475 1473 1472 1471 1471 1470 1469 1469 1468 1467 1464
1492 1495 1500 1500 1503 1490 1489 1487 1488 1490 1496 1491 1493 1496 1497 1498 1498 1497 1496 1496 1497 1496 1493 1491 1489 1486 1483 1482 1480 1477 1475 1473 1472 1470 1468 1466 1465 1465 1464 1463 1463 1462 1462 1461
1483 1491 1493 1492 1499 1500 1484 1488 1488 1495 1493 1494 1495 1497 1498 1497 1497 1497 1496 1496 1494 1491 1489 1487 1484 1481 1479 1478 1476 1473 1470 1468 1466 1464 1461 1460 1459 1458 1457 1456 1456 1456 1456 1456
1491 1485 1488 1486 1486 1487 1487 1489 1491 1494 1495 1495 1495 1497 1497 1497 1497 1496 1494 1493 1491 1487 1485 1482 1481 1478 1476 1473 1471 1467 1465 1463 1460 1457 1455 1453 1450 1450 1450 1449 1449 1449 1450 1450
1482 1482 1488 1486 1482 1484 1486 1489 1489 1493 1494 1495 1495 1496 1495 1494 1492 1491 1490 1488 1486 1483 1481 1479 1476 1473 1470 1468 1466 1463 1461 1458 1455 1450 1448 1447 1445 1442 1442 1441 1442 1441 1443 1443
1482 1487 1486 1483 1482 1481 1483 1486 1489 1491 1493 1493 1493 1493 1492 1490 1488 1486 1485 1483 1480 1478 1476 1473 1471 1468 1465 1462 1460 1457 1455 1452 1449 1445 1443 1440 1438 1436 1435 1434 1434 1434 1436 1434
1484 1482 1484 1487 1487 1487 1488 1491 1492 1492 1491 1492 1491 1490 1488 1486 1484 1482 1480 1479 1475 1473 1471 1469 1465 1462 1459 1456 1454 1452 1450 1447 1444 1441 1438 1435 1432 1429 1428 1427 1427 1427 1426 1428